Regional Weather Roundup
Issued by NWS

Home | Current Version | Previous Version | Graphics & Text | Print | Product List | Glossary On
Versions: 1 2 3 4 5 6 7 8 9 10 11 12 13 14 15 16 17 18 19 20 21 22 23 24 25 26 27 28 29 30 31 32 33 34 35 36 37 38 39 40 41 42 43 44 45 46 47 48 49 50
000
ASUS45 KCYS 221310
RWRWY

WYOMING REGIONAL WEATHER ROUNDUP
NATIONAL WEATHER SERVICE CHEYENNE WY
600 AM MST MON DEC 22 2014

NOTE:  "FAIR" INDICATES FEW OR NO CLOUDS BELOW 12,000 FEET
WITH NO SIGNIFICANT WEATHER AND/OR OBSTRUCTIONS TO VISIBILITY.

WYZ001-221400-
YELLOWSTONE NATIONAL PARK

CITY           SKY/WX    TMP DP  RH WIND       PRES   REMARKS
LK YELLOWSTONE   N/A     22  18  85 W8        29.79S WCI  12
W YELLOWSTONE  NOT AVBL

$$
WYZ002>013-054>058-071-098>099-221400-
NORTHERN WYOMING

CITY           SKY/WX    TMP DP  RH WIND       PRES   REMARKS
JACKSON        CLOUDY    28  27  93 S10       29.84S WCI  19
CODY           CLOUDY    32  25  74 W6        29.74S WCI  26
GREYBULL       CLOUDY    27  23  85 CALM      29.77R
WORLAND        CLOUDY    31  21  66 VRB5      29.76R WCI  26
SHERIDAN       CLOUDY    35  21  56 NW13      29.70R WCI  26
BUFFALO        FLURRIES  35  16  45 N20G26    29.69S WCI  24
GILLETTE       CLOUDY    32  22  66 NW15      29.66S WCI  22
HULETT           N/A    N/A N/A N/A MISG        N/A
NEWCASTLE      CLOUDY    32  30  93 NW15G23   29.64S WCI  22

$$
WYZ014>020-022>026-101>103-221400-
CENTRAL WYOMING

CITY           SKY/WX    TMP DP  RH WIND       PRES   REMARKS
BIG PINEY      CLOUDY    26  23  88 W8        29.84S WCI  18
PINEDALE       LGT SNOW  23  21  93 CALM      29.83S
DUBOIS         NOT AVBL
LANDER         CLOUDY    22  12  65 N6        29.74S WCI  14
RIVERTON       FAIR      25  17  72 E5        29.75S WCI  19
CASPER         MOCLDY    24  19  81 SW9       29.74R WCI  14
DOUGLAS        FAIR      23  19  85 N9        29.73R WCI  13

$$
WYZ021-027>030-104>119-221400-
SOUTHERN WYOMING

CITY           SKY/WX    TMP DP  RH WIND       PRES   REMARKS
EVANSTON       LGT SNOW  30  28  92 W18       29.90F FOG     WCI  18
KEMMERER       LGT SNOW  28  27  93 W14G21    29.88S WCI  17
FORT BRIDGER   LGT SNOW  31  30  94 W15       29.91F WCI  20
ROCK SPRINGS   CLOUDY    28  22  78 W17G28    29.84F WCI  16
DIXON          CLOUDY    28  24  84 SW3       29.87R
RAWLINS        FAIR      22  15  75 W14       29.78S WCI   9
SARATOGA       CLOUDY    23  18  80 CALM      29.80S
LARAMIE        FAIR      21  12  68 W14       29.71F WCI   8
CHEYENNE       FAIR      26  17  68 NW12      29.70S WCI  16
TORRINGTON     FAIR     N/A N/A N/A N6        29.69R
PINE BLUFFS    PTSUNNY   30  27  86 NW14G20   29.71S WCI  20

$$



USA.gov is the U.S. government's official web portal to all federal, state and local government web resources and services.